Tracking 20724 objects as of 2-Jun-2020
HD Live streaming from Space Station
objects crossing your sky now

METEOR 2-17 DEB

Track METEOR 2-17 DEB now!
10-day predictions


NORAD ID: 28992
Int'l Code: 1988-005G
Perigee: 924.2 km
Apogee: 935.9 km
Inclination: 82.5 °
Period: 103.5 minutes
Semi major axis: 7301 km
RCS: 0.0128 m2 (small)
Launch date: January 30, 1988
Source: Commonwealth of Independent States (former USSR) (CIS)
Launch site: PLESETSK MISSILE AND SPACE COMPLEX (PKMTR)

Note: This is SATELLITE DEBRIS
aabbcc
Your satellite tracking list
Your tracking list is empty




NASA's NSSDC Master Catalog

Two Line Element Set (TLE):
1 28992U 88005G   20154.04156340 -.00000773  00000-0 -62160-3 0  9993
2 28992  82.5357 266.1061 0007977 126.5123 359.9773 13.91633487751476
Source of the keplerian elements: AFSPC